DW3706 Weather Reports


Display with metric or nautical units.
time (UTC)temp
F
wind
direction
speed
MPH
gust
MPH
rain 1hr
in
rain 24hr
in
rain mn
in
humidity
%
barometer
mb
20260505055506 54 200 3.0 8.0 0.00 0.00 0.00 72 1010.2
20260505055004 54 223 4.0 7.0 0.00 0.00 0.00 72 1010.3
20260505054504 54 234 3.0 6.0 0.00 0.00 0.00 72 1010.3
20260505054004 54 264 3.0 8.0 0.00 0.00 0.00 72 1010.3
20260505053503 54 249 3.0 8.0 0.00 0.00 0.00 71 1010.3
20260505053009 54 242 3.0 10.0 0.00 0.00 0.00 71 1010.3
20260505052506 54 249 3.0 10.0 0.00 0.00 0.00 70 1010.3
20260505052007 55 247 5.0 10.0 0.00 0.00 0.00 70 1010.3
20260505051508 55 229 2.0 11.0 0.00 0.00 0.00 69 1010.3
20260505051005 55 229 3.0 11.0 0.00 0.00 0.00 69 1010.4
20260505050507 55 219 4.0 12.0 0.00 0.00 0.00 69 1010.4
20260505041511 55 262 5.0 12.0 0.00 0.00 0.00 69 1010.5
20260505041006 55 221 5.0 14.0 0.00 0.00 0.00 69 1010.5
20260505040507 55 220 5.0 14.0 0.00 0.00 0.00 68 1010.5
20260505040018 55 207 5.0 13.0 0.00 0.00 0.00 68 1010.4
20260505035511 55 265 7.0 12.0 0.00 0.00 0.00 68 1010.4
20260505035004 55 221 5.0 12.0 0.00 0.00 0.00 67 1010.4
20260505034516 56 246 4.0 12.0 0.00 0.00 0.00 67 1010.4
20260505034004 56 266 4.0 11.0 0.00 0.00 0.00 67 1010.4
20260505033505 56 230 3.0 12.0 0.00 0.00 0.00 66 1010.3
20260505033015 56 218 5.0 13.0 0.00 0.00 0.00 66 1010.3
20260505032502 56 234 4.0 13.0 0.00 0.00 0.00 66 1010.4
20260505032006 56 209 4.0 10.0 0.00 0.00 0.00 65 1010.5
20260505031508 56 234 4.0 11.0 0.00 0.00 0.00 65 1010.4
20260505031006 56 252 5.0 12.0 0.00 0.00 0.00 64 1010.3
20260505030506 56 223 3.0 12.0 0.00 0.00 0.00 64 1010.5
20260505030017 57 264 8.0 12.0 0.00 0.00 0.00 63 1010.4
20260505025511 57 234 4.0 12.0 0.00 0.00 0.00 63 1010.4
20260505025004 57 249 5.0 12.0 0.00 0.00 0.00 62 1010.5
20260505024517 57 225 4.0 10.0 0.00 0.00 0.00 61 1010.4
20260505024008 57 223 4.0 13.0 0.00 0.00 0.00 60 1010.6
20260505023507 57 235 6.0 13.0 0.00 0.00 0.00 60 1010.6
20260505023013 57 242 7.0 13.0 0.00 0.00 0.00 59 1010.6
20260505022508 58 231 5.0 13.0 0.00 0.00 0.00 59 1010.5
20260505022007 58 240 6.0 15.0 0.00 0.00 0.00 58 1010.5
20260505021509 58 254 5.0 15.0 0.00 0.00 0.00 59 1010.4
20260505021007 57 237 7.0 14.0 0.00 0.00 0.00 59 1010.4
20260505020506 57 236 6.0 14.0 0.00 0.00 0.00 59 1010.3
20260505020013 58 240 5.0 13.0 0.00 0.00 0.00 59 1010.4
20260505015506 58 252 6.0 14.0 0.00 0.00 0.00 58 1010.4
20260505015006 58 222 8.0 14.0 0.00 0.00 0.00 58 1010.4
20260505014516 58 226 6.0 15.0 0.00 0.00 0.00 57 1010.3
20260505014004 58 219 5.0 13.0 0.00 0.00 0.00 57 1010.3
20260505013507 58 248 5.0 12.0 0.00 0.00 0.00 57 1010.2
20260505013016 58 246 5.0 11.0 0.00 0.00 0.00 57 1010.2
20260505012506 59 247 6.0 10.0 0.00 0.00 0.00 57 1010.2
20260505012009 59 187 5.0 11.0 0.00 0.00 0.00 56 1010.0
20260505011514 59 265 4.0 13.0 0.00 0.00 0.00 55 1009.9
20260505011007 59 233 7.0 13.0 0.00 0.00 0.00 55 1009.9
20260505010506 60 224 5.0 12.0 0.00 0.00 0.00 55 1009.9
20260505010010 60 267 4.0 13.0 0.00 0.00 0.00 54 1009.8
20260505005507 60 227 5.0 14.0 0.00 0.00 0.00 53 1009.7
20260505005006 60 248 6.0 14.0 0.00 0.00 0.00 54 1009.5
20260505004516 60 252 6.0 16.0 0.00 0.00 0.00 54 1009.5
20260505004008 60 207 6.0 16.0 0.00 0.00 0.00 53 1009.4
20260505003511 60 204 8.0 16.0 0.00 0.00 0.00 53 1009.2
20260505003015 60 227 8.0 16.0 0.00 0.00 0.00 53 1009.1
20260505002508 61 245 4.0 14.0 0.00 0.00 0.00 52 1008.9
20260505002007 61 208 6.0 16.0 0.00 0.00 0.00 52 1008.8
20260505001517 61 219 9.0 18.0 0.00 0.00 0.00 51 1008.7
20260505001007 61 240 7.0 19.0 0.00 0.00 0.00 50 1008.6
20260505000507 61 238 8.0 19.0 0.00 0.00 0.00 51 1008.5
20260505000029 61 240 9.0 17.0 0.00 0.00 0.00 52 1008.5
20260504235506 62 255 8.0 16.0 0.00 0.00 0.00 52 1008.4
20260504235006 62 192 7.0 16.0 0.00 0.00 0.00 52 1008.3
20260504234514 62 218 6.0 16.0 0.00 0.00 0.00 51 1008.2
20260504234007 63 228 8.0 15.0 0.00 0.00 0.00 48 1008.1
20260504233506 63 232 7.0 20.0 0.00 0.00 0.00 48 1008.0
20260504233022 64 227 8.0 24.0 0.00 0.00 0.00 47 1007.9
20260504232507 64 251 10.0 24.0 0.00 0.00 0.00 46 1007.8
20260504232007 65 200 6.0 17.0 0.00 0.00 0.00 45 1007.7
20260504231516 65 202 5.0 17.0 0.00 0.00 0.00 45 1007.6
20260504231013 65 229 7.0 17.0 0.00 0.00 0.00 44 1007.4
20260504230506 65 277 7.0 17.0 0.00 0.00 0.00 44 1007.3
20260504230014 65 197 8.0 25.0 0.00 0.00 0.00 44 1007.2
20260504225508 65 203 9.0 25.0 0.00 0.00 0.00 44 1007.1
20260504225007 66 190 10.0 20.0 0.00 0.00 0.00 44 1007.1
20260504224512 66 225 8.0 19.0 0.00 0.00 0.00 44 1007.1
20260504224008 66 219 11.0 18.0 0.00 0.00 0.00 43 1007.0
20260504223507 67 251 8.0 18.0 0.00 0.00 0.00 42 1007.0
20260504223020 67 234 10.0 18.0 0.00 0.00 0.00 42 1006.8
20260504222507 67 254 8.0 17.0 0.00 0.00 0.00 42 1006.8
20260504222007 68 234 7.0 17.0 0.00 0.00 0.00 40 1006.8
20260504221526 68 256 6.0 16.0 0.00 0.00 0.00 40 1006.7
20260504221010 69 239 8.0 15.0 0.00 0.00 0.00 39 1006.6
20260504220508 70 255 6.0 18.0 0.00 0.00 0.00 37 1006.7
20260504220038 71 223 7.0 16.0 0.00 0.00 0.00 36 1006.7
20260504215510 72 243 5.0 15.0 0.00 0.00 0.00 34 1006.7
20260504215010 73 238 6.0 15.0 0.00 0.00 0.00 31 1006.8
20260504214522 73 234 5.0 14.0 0.00 0.00 0.00 29 1006.6
20260504214006 74 265 5.0 16.0 0.00 0.00 0.00 29 1006.7
20260504213509 74 242 6.0 17.0 0.00 0.00 0.00 28 1006.7
20260504213015 74 209 10.0 17.0 0.00 0.00 0.00 29 1006.7
20260504212507 75 263 6.0 16.0 0.00 0.00 0.00 28 1006.7
20260504212011 75 270 5.0 12.0 0.00 0.00 0.00 28 1006.6
20260504211521 74 262 5.0 11.0 0.00 0.00 0.00 28 1006.6
20260504211011 74 244 5.0 15.0 0.00 0.00 0.00 28 1006.7
20260504210507 74 247 7.0 16.0 0.00 0.00 0.00 28 1006.7
20260504210024 74 236 7.0 16.0 0.00 0.00 0.00 28 1006.7
20260504205508 74 254 9.0 18.0 0.00 0.00 0.00 28 1006.8
20260504205009 74 211 11.0 18.0 0.00 0.00 0.00 27 1006.6
20260504204535 74 215 6.0 18.0 0.00 0.00 0.00 29 1006.5
20260504204007 74 252 8.0 18.0 0.00 0.00 0.00 28 1006.7
20260504203510 74 242 7.0 21.0 0.00 0.00 0.00 27 1006.7
20260504203023 75 257 9.0 21.0 0.00 0.00 0.00 27 1006.7
20260504202507 75 242 10.0 19.0 0.00 0.00 0.00 26 1006.8
20260504202008 75 236 7.0 15.0 0.00 0.00 0.00 26 1006.8
20260504201522 75 242 7.0 14.0 0.00 0.00 0.00 26 1006.8
20260504201006 75 231 6.0 18.0 0.00 0.00 0.00 26 1006.8
20260504200511 75 234 9.0 18.0 0.00 0.00 0.00 26 1006.8
20260504200020 75 211 5.0 16.0 0.00 0.00 0.00 27 1006.9
20260504195506 74 254 5.0 20.0 0.00 0.00 0.00 26 1007.0
20260504195010 74 226 9.0 20.0 0.00 0.00 0.00 26 1006.9
20260504194517 74 238 10.0 20.0 0.00 0.00 0.00 26 1006.8
20260504194013 75 223 8.0 17.0 0.00 0.00 0.00 26 1006.7
20260504193511 75 200 6.0 18.0 0.00 0.00 0.00 25 1006.8
20260504193026 75 219 4.0 18.0 0.00 0.00 0.00 26 1006.8
20260504192510 75 254 7.0 19.0 0.00 0.00 0.00 26 1006.8
20260504192013 74 241 5.0 19.0 0.00 0.00 0.00 26 1006.8
20260504191526 74 339 7.0 17.0 0.00 0.00 0.00 26 1006.8
20260504191008 74 246 6.0 22.0 0.00 0.00 0.00 26 1006.8
20260504190509 73 229 12.0 22.0 0.00 0.00 0.00 26 1007.0
20260504190028 74 232 11.0 22.0 0.00 0.00 0.00 26 1007.0
20260504185509 74 232 8.0 15.0 0.00 0.00 0.00 26 1007.0
20260504185005 75 238 5.0 18.0 0.00 0.00 0.00 27 1007.0
20260504184507 75 248 5.0 18.0 0.00 0.00 0.00 26 1007.0
20260504184008 74 230 7.0 22.0 0.00 0.00 0.00 26 1007.1
20260504183506 74 229 11.0 22.0 0.00 0.00 0.00 26 1007.1
20260504183003 73 221 6.0 24.0 0.00 0.00 0.00 27 1007.2
20260504182502 73 234 9.0 24.0 0.00 0.00 0.00 27 1007.3
20260504182009 73 247 6.0 21.0 0.00 0.00 0.00 28 1007.3
20260504181519 73 264 12.0 21.0 0.00 0.00 0.00 26 1007.3
20260504181007 73 231 9.0 21.0 0.00 0.00 0.00 26 1007.4
20260504180506 73 211 4.0 16.0 0.00 0.00 0.00 28 1007.5
20260504180017 73 200 8.0 21.0 0.00 0.00 0.00 27 1007.5
20260504175503 72 252 7.0 21.0 0.00 0.00 0.00 27 1007.5
20260504175003 72 249 9.0 21.0 0.00 0.00 0.00 28 1007.4
20260504174503 72 244 10.0 20.0 0.00 0.00 0.00 29 1007.4
20260504174003 72 248 11.0 20.0 0.00 0.00 0.00 28 1007.5
20260504173504 72 253 10.0 20.0 0.00 0.00 0.00 28 1007.5
20260504173008 72 264 11.0 22.0 0.00 0.00 0.00 27 1007.6
20260504172506 72 237 11.0 22.0 0.00 0.00 0.00 28 1007.6
20260504172006 71 240 10.0 21.0 0.00 0.00 0.00 27 1007.6
20260504171508 71 236 10.0 23.0 0.00 0.00 0.00 29 1007.7
20260504171010 71 245 10.0 25.0 0.00 0.00 0.00 28 1007.6
20260504170506 71 221 7.0 26.0 0.00 0.00 0.00 28 1007.5
20260504151011 68 226 11.0 29.0 0.00 0.00 0.00 33 1009.0
20260504150507 68 227 12.0 21.0 0.00 0.00 0.00 32 1009.0
20260504141006 65 228 4.0 12.0 0.00 0.00 0.00 37 1009.6
20260504140503 65 260 5.0 12.0 0.00 0.00 0.00 36 1009.7
20260504130510 60 220 3.0 13.0 0.00 0.00 0.00 40 1010.2
20260504110507 49 239 3.0 8.0 0.00 0.00 0.00 54 1010.8
20260504100507 48 221 1.0 4.0 0.00 0.00 0.00 53 1010.8
20260504082006 49 236 3.0 7.0 0.00 0.00 0.00 50 1010.5
20260504081509 49 248 2.0 8.0 0.00 0.00 0.00 50 1010.5
20260504081008 49 245 3.0 8.0 0.00 0.00 0.00 50 1010.5
20260504080510 49 236 3.0 6.0 0.00 0.00 0.00 50 1010.5